TIME,DELAY(SENSOR),PRES,OXYGEN,RAWTEMP,T(OPTODE),TCPHASE,FLUOR,BETA(BETA700),BETA(BETA412),BETA(BETA440),CDOM,C(CSC),ED(ED412.40),ED(ED444.00),ED(ED489.70),ED(ED554.30),LU(LU411.80),LU(LU443.40),LU(LU489.60),LU(LU554.10),COMP,TILTX,TILTY,CHECK
1358480931,5809,885.1799926757812000,47.1704101562500000,661.4417114257812000,4.5805001258850100,53.9626808166503900,53,102,90,80,80,15046,2147754157,2147425197,2148007369,2147870454,2147641792,2147057920,2148264128,2147198281,1622,4,13,1222
1358484527,5809,962.3300170898438000,52.0804710388183600,669.4052124023438000,4.3178458213806150,53.3742599487304700,52,100,84,79,81,15044,2147755401,2147424530,2148010907,2147874688,2147642221,2147055204,2148262080,2147194834,652,4,13,10292
1358488127,5810,973.5800170898438000,51.7809410095214840,670.8101806640625000,4.2714290618896480,53.4387817382812500,53,99,90,79,80,15042,2147756059,2147424310,2148006857,2147873051,2147641197,2147057929,2148261988,2147199250,404,4,13,20423
1358491727,5811,982.9400024414062000,52.8900108337402340,670.8945922851562000,4.2686419486999510,53.2850189208984400,53,104,84,78,80,15041,2147757952,2147423286,2148012315,2147872100,2147636434,2147064832,2148260937,2147198610,336,4,13,30253
1358495327,5809,981.3400268554688000,52.9597206115722660,670.8126220703125000,4.2713508605957030,53.2755813598632800,52,98,87,80,81,15044,2147756105,2147422573,2148012333,2147876041,2147644013,2147059830,2148264950,2147197357,3240,4,13,51262
1358498927,5809,982.5399780273438000,52.7765808105468750,671.8682861328125000,4.2364602088928220,53.3119888305664060,52,98,88,78,81,15043,2147757074,2147423936,2148013147,2147877147,2147643090,2147056493,2148265846,2147199213,147,4,13,37744
1358502527,5809,985.2000122070312000,52.2411193847656250,672.9265747070312000,4.2014708518981930,53.4026603698730500,53,96,85,80,81,15044,2147757769,2147423414,2148011922,2147874221,2147642806,2147051520,2148262262,2147201472,3310,4,13,28522
1358506127,5808,983.2199707031250000,52.0075798034668000,673.7941894531250000,4.1727790832519530,53.4417991638183600,52,105,89,79,81,15041,2147751222,2147425024,2148012352,2147874432,2147639204,2147053202,2148263689,2147197988,3523,4,13,33016
1358509727,5805,990.2100219726562000,52.0033988952636700,673.3259887695312000,4.1882629394531250,53.4383010864257800,52,99,87,79,82,15043,2147752594,2147423250,2148012132,2147876105,2147640868,2147055936,2148262646,2147198418,186,4,13,58684
1358513327,5810,985.5599975585938000,52.3753585815429700,673.9249267578125000,4.1684570312500000,53.3953514099121100,53,99,88,78,82,15042,2147758518,2147423661,2148011026,2147872082,2147644470,2147053723,2148260470,2147195145,551,4,13,1655
1358516927,5811,990.6599731445312000,52.2196884155273440,674.0407714843750000,4.1646227836608890,53.4202308654785160,52,97,87,79,80,15037,2147761289,2147418925,2148012617,2147872228,2147645376,2147060260,2148261513,2147198235,3567,4,13,12120
1358520527,5813,995.5999755859375000,52.0313796997070300,672.7241210937500000,4.2081699371337890,53.4290390014648440,53,97,88,79,81,15040,2147756928,2147422555,2148015003,2147873371,2147640228,2147058212,2148256365,2147199085,3201,4,13,4430
1358524127,5808,997.0800170898438000,52.4849891662597660,671.5684814453125000,4.2463698387146000,53.3517684936523440,52,101,86,78,81,15039,2147755611,2147421714,2148010057,2147875254,2147646144,2147055515,2148259922,2147196196,342,4,13,32899
1358527727,5808,997.9400024414062000,52.6790504455566400,671.2529296875000000,4.2568020820617680,53.3217811584472660,53,103,85,79,81,15040,2147758308,2147423460,2148012498,2147875748,2147640173,2147059008,2148257124,2147197266,3304,4,13,6267
1358531327,5808,1000.5700073242188000,52.4382896423339840,671.3347778320312000,4.2540931701660160,53.3516883850097660,52,99,83,79,81,15038,2147758125,2147423277,2148008219,2147874404,2147644772,2147061101,2148257417,2147194971,148,4,13,21605
1358534927,5808,1000.8599853515625000,52.3322105407714840,671.0103759765625000,4.2648138999938965,53.3674507141113300,53,98,85,80,80,15038,2147757220,2147426194,2148010861,2147872658,2147641060,2147058962,2148261650,2147201654,3419,4,13,65525
1358538527,5807,993.2500000000000000,51.8291091918945300,672.7714843750000000,4.2066020965576170,53.4574890136718750,52,102,87,79,81,15037,2147757385,2147421814,2148012041,2147875830,2147640941,2147060489,2148259245,2147195986,3577,4,13,45023
1358542127,5810,989.7000122070312000,51.9996604919433600,673.8457031250000000,4.1710758209228520,53.4446716308593750,53,96,84,79,81,15037,2147758262,2147423396,2148012233,2147875318,2147641792,2147058194,2148262573,2147197760,200,4,13,45493
1358545727,5811,984.6400146484375000,51.7101707458496100,675.5305786132812000,4.1153259277343750,53.5054588317871100,53,99,89,79,80,15038,2147759515,2147420681,2148012946,2147873243,2147644123,2147054665,2148253952,2147193609,35,5,13,7716
1358549327,5809,984.9799804687500000,51.8869781494140600,675.4929809570312000,4.1165699958801270,53.4843406677246100,52,97,88,78,80,15038,2147758372,2147427446,2148009718,2147876032,2147644653,2147059419,2148258870,2147199104,68,4,13,58613
1358552927,5808,985.0100097656250000,52.7135200500488300,677.4586181640625000,4.0514950752258300,53.3955993652343750,53,98,86,79,82,15038,2147749321,2147424978,2148011611,2147875044,2147645019,2147059922,2148263405,2147195547,559,4,13,56738
1358556527,5811,982.1500244140625000,52.8605918884277340,677.1312866210938000,4.0623321533203125,53.3727607727050800,51,101,88,78,80,15036,2147757778,2147428324,2148011300,2147874788,2147645632,2147055561,2148264493,2147195355,3422,4,14,52624
1358560127,5809,989.2800292968750000,51.7587699890136700,675.5687866210938000,4.1140627861022950,53.5039215087890600,52,97,87,79,81,15032,2147756178,2147422665,2148009938,2147875401,2147641938,2147060498,2148263725,2147196882,3546,4,13,32655
1358563727,5811,1000.2600097656250000,51.2959098815918000,673.9365234375000000,4.1680722236633300,53.5438804626464840,52,96,89,80,80,15034,2147759040,2147422125,2148007433,2147874093,2147644736,2147054848,2148256594,2147194724,36,4,13,12401
1358567327,5808,1002.8599853515625000,51.7195396423339840,672.4630737304688000,4.2167968750000000,53.4639511108398440,52,98,86,78,81,15031,2147754240,2147421750,2148010642,2147876342,2147644416,2147057206,2148260690,2147195556,3571,4,13,2053
1358570927,5808,1000.0999755859375000,51.9122009277343750,673.0352172851562000,4.1978797912597660,53.4481391906738300,53,99,86,78,81,15029,2147758253,2147422921,2148010304,2147875309,2147642331,2147055085,2148262226,2147194331,484,4,13,34570
1358574527,5808,997.2999877929688000,50.8911590576171900,673.7752075195312000,4.1734089851379395,53.5937690734863300,52,97,87,79,79,15028,2147751195,2147420864,2148011931,2147874541,2147643081,2147057700,2148256850,2147195565,113,4,13,28176
1358578127,5805,999.7899780273438000,51.5852317810058600,673.2174072265625000,4.1918540000915530,53.4912185668945300,52,97,89,80,80,15030,2147756480,2147423168,2148011958,2147870875,2147642422,2147053805,2148260736,2147200192,380,4,13,15301
1358581727,5808,1016.3099975585938000,52.3324584960937500,670.9221801757812000,4.2677268981933590,53.3652305603027340,53,97,85,79,80,15027,2147757942,2147423488,2148012032,2147874285,2147643721,2147048347,2148261229,2147194998,3329,4,13,7971
1358585327,5807,1000.9400024414062000,51.8255882263183600,671.8991699218750000,4.2354388236999510,53.4438591003418000,53,98,87,79,80,15029,2147755766,2147425517,2148009490,2147875657,2147642368,2147058624,2148257901,2147197257,452,4,13,43471
1358588927,5808,999.2500000000000000,51.0737991333007800,674.0928955078125000,4.1628990173339840,53.5759010314941400,52,97,87,79,80,15028,2147757147,2147420626,2148007936,2147874148,2147646546,2147060032,2148258112,2147200612,3567,4,13,25949
1358592527,5808,998.5599975585938000,50.7010192871093750,674.0311889648438000,4.1649398803710940,53.6208992004394500,53,99,87,78,81,15028,2147759067,2147424329,2148009225,2147875840,2147643931,2147061504,2148259858,2147199067,3440,4,13,20701
1358596127,5809,1002.8200073242188000,50.7980308532714840,674.0938720703125000,4.1628651618957520,53.6121597290039060,52,98,88,78,81,15026,2147757677,2147421193,2148007332,2147875017,2147644608,2147062793,2148261019,2147194889,3332,4,13,26054
1358599727,5810,1004.2199707031250000,51.7255706787109400,672.6925048828125000,4.2092127799987790,53.4659690856933600,53,99,84,78,82,15024,2147758308,2147422381,2148011483,2147874441,2147643830,2147063451,2148260169,2147197083,2952,4,13,38908
1358603327,5805,1006.5399780273438000,51.3556900024414060,673.2484130859375000,4.1908321380615230,53.5244102478027340,52,99,87,80,80,15026,2147755026,2147423844,2148010523,2147872941,2147643803,2147055469,2148261019,2147198171,337,4,13,32907
1358606927,5807,998.2100219726562000,51.4397888183593750,673.2144165039062000,4.1919560432434080,53.5157203674316400,52,100,89,79,80,15024,2147759204,2147425792,2148010505,2147875072,2147641170,2147057819,2148261403,2147196973,117,4,13,40818
1358610527,5810,995.0399780273438000,51.3613700866699200,674.8557739257812000,4.1376571655273440,53.5443611145019500,52,100,86,79,81,15025,2147755958,2147426550,2148011181,2147873728,2147640539,2147060617,2148261604,2147197275,309,4,13,29941
1358614127,5807,1000.2100219726562000,50.8094406127929700,675.2313232421875000,4.1252350807189940,53.6235885620117200,52,98,88,79,81,15021,2147753371,2147424877,2148010157,2147873408,2147642230,2147058020,2148258368,2147196425,102,4,13,48431
1358617727,5808,999.9899902343750000,50.8260116577148440,675.5048217773438000,4.1161818504333500,53.6226310729980500,54,98,84,79,81,15026,2147757248,2147424841,2148010742,2147876800,2147642102,2147057197,2148257033,2147195474,60,4,13,35709
1358621327,5810,1000.3400268554688000,51.8407897949218750,675.5244750976562000,4.1155281066894530,53.4890594482421900,52,99,87,78,81,15023,2147758089,2147421092,2148008649,2147874203,2147643227,2147057828,2148264091,2147197549,3367,4,13,27562
1358624927,5807,997.2100219726562000,51.2714881896972660,674.0928955078125000,4.1628990173339840,53.5448188781738300,52,97,88,79,81,15025,2147756781,2147425270,2148008667,2147876059,2147644187,2147058313,2148263030,2147195547,1199,4,13,9176
1358625655,5809,1002.9099731445312000,51.2492218017578100,674.6253051757812000,4.1452851295471190,53.5590705871582000,53,97,89,79,82,15038,2147758381,2147424667,2148013430,2147877869,2147642532,2147057581,2148264813,2147200073,2668,4,13,43171
